Date String (YYYY-MM-DD hh:mm:ss) UTC,Instrument flags,Ambient pressure (hPa),Sample flow (lpm),Bypass flow (lpm),Sample temperature (°C),Ambient temperature (°C),ASC tube jacket temperature (°C),LED temperature (°C),Box temperature (°C),Sample RH (%),Span deviation,Mass concentration (μg/m³),Mass concentration (μg/m³),Mass concentration (μg/m³)
DateTimeUTC,F1_M11,P_M11,Q1_M11,Q2_M11,T1_M11,T2_M11,T3_M11,T4_M11,T5_M11,U1_M11,ZSPAN_M11,X0_M11,X2_M11,X1_M11
2022-08-16 17:00:00,,0832.6,5.01,0.00,31.8,28.2,00.0,40.1,32.4,33.5,0000.0,0008.32,0005.33,0004.73
2022-08-16 17:01:00,,0832.6,4.98,0.00,31.7,28.1,00.0,40.1,32.3,33.9,0000.0,0008.30,0005.32,0004.74
2022-08-16 17:02:00,,0832.6,5.00,0.00,31.5,28.1,00.0,40.0,32.2,34.6,0000.0,0008.35,0005.35,0004.76
2022-08-16 17:03:00,,0832.6,5.00,0.00,31.5,28.2,00.0,40.0,32.3,34.6,0000.0,0008.52,0005.39,0004.78
2022-08-16 17:04:00,,0832.6,5.00,0.00,31.5,28.3,00.0,40.0,32.3,35.0,0000.0,0008.57,0005.39,0004.79
2022-08-16 17:05:00,,0832.6,4.98,0.00,31.6,28.4,00.0,40.0,32.4,34.9,0000.0,0008.53,0005.38,0004.79
2022-08-16 17:06:00,,0832.6,5.01,0.00,31.7,28.6,00.0,40.0,32.5,35.2,0000.0,0008.58,0005.39,0004.79
2022-08-16 17:07:00,,0832.7,5.00,0.00,31.9,28.7,00.0,39.9,32.6,33.9,0000.0,0008.69,0005.39,0004.79
2022-08-16 17:08:00,,0832.6,5.00,0.00,32.0,28.8,00.0,39.9,32.6,33.6,0000.0,0008.73,0005.39,0004.78
2022-08-16 17:09:00,,0832.6,5.00,0.00,32.1,28.9,00.0,40.0,32.6,33.5,0000.0,0008.77,0005.41,0004.79
2022-08-16 17:10:00,,0832.7,5.00,0.00,32.1,28.9,00.0,40.0,32.6,33.8,0000.0,0008.76,0005.41,0004.80
2022-08-16 17:11:00,,0832.6,5.00,0.00,32.0,29.0,00.0,40.0,32.6,34.1,0000.0,0008.66,0005.38,0004.80
2022-08-16 17:12:00,,0832.6,5.00,0.00,32.0,29.1,00.0,40.1,32.6,34.2,0000.0,0009.00,0005.39,0004.80
2022-08-16 17:13:00,,0832.6,5.00,0.00,32.0,29.1,00.0,40.1,32.6,33.5,0000.0,0008.95,0005.38,0004.80
2022-08-16 17:14:00,,0832.6,4.99,0.00,32.0,29.2,00.0,40.1,32.6,34.2,0000.0,0008.94,0005.39,0004.80
2022-08-16 17:15:00,,0832.7,5.00,0.00,31.9,29.2,00.0,40.2,32.6,34.2,0000.0,0009.04,0005.44,0004.80
2022-08-16 17:16:00,,0832.7,5.00,0.00,31.9,29.3,00.0,40.2,32.7,33.7,0000.0,0009.20,0005.49,0004.81
2022-08-16 17:17:00,,0832.7,5.00,0.00,31.9,29.3,00.0,40.2,32.7,34.4,0000.0,0009.13,0005.47,0004.82
2022-08-16 17:18:00,,0832.7,5.01,0.00,31.9,28.8,00.0,40.1,32.5,33.6,0000.0,0009.12,0005.48,0004.85
2022-08-16 17:19:00,,0832.7,4.99,0.00,31.8,28.1,00.0,40.1,32.3,34.6,0000.0,0009.16,0005.52,0004.88
2022-08-16 17:20:00,,0832.6,5.01,0.00,31.7,27.8,00.0,40.1,32.2,35.1,0000.0,0009.12,0005.52,0004.89
2022-08-16 17:21:00,,0832.7,5.00,0.00,31.6,27.7,00.0,40.0,32.2,34.8,0000.0,0009.09,0005.51,0004.89
2022-08-16 17:22:00,,0832.6,5.00,0.00,31.6,27.8,00.0,40.0,32.2,34.6,0000.0,0009.16,0005.53,0004.90
2022-08-16 17:23:00,,0832.7,5.00,0.00,31.6,28.0,00.0,40.0,32.2,34.1,0000.0,0008.86,0005.53,0004.91
2022-08-16 17:24:00,,0832.7,5.00,0.00,31.5,28.1,00.0,39.9,32.2,34.0,0000.0,0008.93,0005.56,0004.92
2022-08-16 17:25:00,,0832.7,5.00,0.00,31.5,28.2,00.0,39.9,32.2,34.3,0000.0,0008.81,0005.51,0004.92
2022-08-16 17:26:00,,0832.7,5.01,0.00,31.5,28.4,00.0,39.9,32.3,34.7,0000.0,0008.70,0005.48,0004.93
2022-08-16 17:27:00,,0832.7,4.98,0.00,31.5,28.5,00.0,39.9,32.3,35.2,0000.0,0008.61,0005.45,0004.93
2022-08-16 17:28:00,,0832.6,5.01,0.00,31.6,28.6,00.0,39.9,32.4,35.8,0000.0,0008.68,0005.48,0004.92
2022-08-16 17:29:00,,0832.7,5.00,0.00,31.8,28.7,00.0,39.9,32.6,34.5,0000.0,0008.65,0005.49,0004.91
2022-08-16 17:30:00,,0832.7,4.99,0.00,31.9,28.8,00.0,39.9,32.6,34.6,0000.0,0008.65,0005.46,0004.88
2022-08-16 17:31:00,,0832.7,5.01,0.00,32.1,28.9,00.0,39.9,32.6,35.5,0000.0,0008.66,0005.46,0004.86
2022-08-16 17:32:00,,0832.7,5.00,0.00,32.2,29.0,00.0,40.0,32.7,34.3,0000.0,0008.71,0005.47,0004.85
2022-08-16 17:33:00,,0832.7,5.00,0.00,32.3,29.0,00.0,40.0,32.7,35.4,0000.0,0008.72,0005.46,0004.83
2022-08-16 17:34:00,,0832.7,4.99,0.00,32.5,29.1,00.0,40.1,32.8,35.3,0000.0,0008.68,0005.42,0004.80
2022-08-16 17:35:00,,0832.7,5.01,0.00,32.8,29.2,00.0,40.1,33.0,35.1,0000.0,0009.01,0005.35,0004.77
2022-08-16 17:36:00,,0832.7,5.00,0.00,33.0,29.2,00.0,40.2,33.0,32.9,0000.0,0009.36,0005.35,0004.73
2022-08-16 17:37:00,,0832.7,5.00,0.00,33.1,29.3,00.0,40.3,33.0,33.2,0000.0,0009.60,0005.33,0004.70
2022-08-16 17:38:00,,0832.7,4.99,0.00,33.1,29.3,00.0,40.4,33.0,32.6,0000.0,0009.69,0005.33,0004.69
2022-08-16 17:39:00,,0832.7,5.01,0.00,33.1,29.3,00.0,40.4,33.0,32.5,0000.0,0009.72,0005.35,0004.69
2022-08-16 17:40:00,,0832.7,5.01,0.00,33.1,28.8,00.0,40.5,32.8,32.7,0000.0,0009.78,0005.38,0004.70
2022-08-16 17:41:00,,0832.7,5.00,0.00,33.0,28.1,00.0,40.5,32.6,33.2,0000.0,0010.14,0005.38,0004.71
2022-08-16 17:42:00,,0832.7,4.99,0.00,32.8,27.9,00.0,40.5,32.5,32.8,0000.0,0010.42,0005.40,0004.71
2022-08-16 17:43:00,,0832.7,5.00,0.00,32.7,27.8,00.0,40.5,32.4,32.9,0000.0,0010.77,0005.40,0004.73
2022-08-16 17:44:00,,0832.7,5.01,0.00,32.5,27.9,00.0,40.5,32.4,33.6,0000.0,0010.90,0005.45,0004.76
2022-08-16 17:45:00,,0832.7,5.00,0.00,32.4,28.1,00.0,40.5,32.4,33.9,0000.0,0011.03,0005.48,0004.79
2022-08-16 17:46:00,,0832.7,5.00,0.00,32.3,28.2,00.0,40.5,32.5,34.2,0000.0,0011.69,0005.55,0004.82
2022-08-16 17:47:00,,0832.7,5.01,0.00,32.2,28.4,00.0,40.5,32.5,33.9,0000.0,0011.62,0005.60,0004.86
2022-08-16 17:48:00,,0832.7,5.00,0.00,32.2,28.5,00.0,40.5,32.5,34.1,0000.0,0011.39,0005.65,0004.90
2022-08-16 17:49:00,,0832.8,5.00,0.00,32.1,28.6,00.0,40.4,32.5,33.5,0000.0,0011.35,0005.67,0004.92
2022-08-16 17:50:00,,0832.7,5.00,0.00,32.0,28.7,00.0,40.4,32.5,34.0,0000.0,0011.36,0005.68,0004.94
2022-08-16 17:51:00,,0832.7,5.00,0.00,32.0,28.8,00.0,40.4,32.6,34.3,0000.0,0011.45,0005.66,0004.96
2022-08-16 17:52:00,,0832.8,5.00,0.00,31.9,28.9,00.0,40.4,32.6,34.6,0000.0,0011.24,0005.68,0004.97
2022-08-16 17:53:00,,0832.8,5.00,0.00,31.9,29.0,00.0,40.3,32.6,33.9,0000.0,0010.87,0005.69,0004.99
2022-08-16 17:54:00,,0832.7,5.01,0.00,31.8,29.1,00.0,40.3,32.6,34.2,0000.0,0010.59,0005.70,0005.01
2022-08-16 17:55:00,,0832.7,5.02,0.00,31.8,29.1,00.0,40.3,32.6,35.2,0000.0,0010.41,0005.71,0005.01
2022-08-16 17:56:00,,0832.7,4.98,0.00,31.9,29.2,00.0,40.3,32.7,34.4,0000.0,0010.55,0005.73,0005.03
2022-08-16 17:57:00,,0832.7,5.00,0.00,31.9,29.3,00.0,40.3,32.8,34.7,0000.0,0009.84,0005.73,0005.04
2022-08-16 17:58:00,,0832.7,5.00,0.00,32.0,29.3,00.0,40.3,32.8,34.2,0000.0,0009.53,0005.75,0005.04
2022-08-16 17:59:00,,0832.7,5.01,0.00,32.1,29.3,00.0,40.3,32.8,34.0,0000.0,0009.69,0005.74,0005.06
